This demonstration page uses our WeatherBlox Daily Observations layout. Learn more.

Left ArrowRight Arrow

Hourly Observations for September 5, 2022

Temp ( °F °C ) Dew Point ( °F °C ) Humidity (%) Winds ( mph kmh ) Pressure ( in mb ) Visibility ( mi km ) Precip ( " mm )
12:15 am 00:15 Partly Cloudy 77 25 68 20 74 74 S 6 9 30.09 1019 10 16 0.00 0.00
12:35 am 00:35 Partly Cloudy 77 25 66 19 69 69 S 7 11 30.07 1018 10 16 0.00 0.00
12:55 am 00:55 Clear 77 25 66 19 69 69 S 8 13 30.07 1018 10 16 0.00 0.00
1:15 am 01:15 Partly Cloudy 75 24 66 19 74 74 SSW 6 9 30.07 1018 10 16 0.00 0.00
1:35 am 01:35 Mostly Cloudy 73 23 66 19 78 78 SSW 6 9 30.08 1018 10 16 0.00 0.00
1:55 am 01:55 Cloudy 73 23 66 19 78 78 S 6 9 30.08 1018 10 16 0.00 0.00
2:15 am 02:15 Mostly Cloudy 73 23 66 19 78 78 SSW 5 7 30.07 1018 10 16 0.00 0.00
2:35 am 02:35 Partly Cloudy 73 23 64 18 73 73 Calm 30.07 1018 10 16 0.00 0.00
2:55 am 02:55 Clear 73 23 66 19 78 78 SSW 3 6 30.07 1018 10 16 0.00 0.00
3:15 am 03:15 Clear 72 22 64 18 78 78 Calm 30.07 1018 10 16 0.00 0.00
3:35 am 03:35 Clear 73 23 66 19 78 78 SSE 3 6 30.07 1018 N/A 0.00 0.00
3:55 am 03:55 Clear 72 22 64 18 78 78 Calm 30.07 1018 N/A 0.00 0.00
4:15 am 04:15 Partly Cloudy 72 22 66 19 83 83 S 3 6 30.07 1018 10 16 0.00 0.00
4:35 am 04:35 Mostly Cloudy 72 22 66 19 83 83 S 5 7 30.07 1018 10 16 0.00 0.00
4:55 am 04:55 Cloudy 72 22 66 19 83 83 S 5 7 30.07 1018 10 16 0.00 0.00
5:15 am 05:15 Mostly Cloudy 72 22 66 19 83 83 S 6 9 30.07 1018 10 16 0.00 0.00
5:35 am 05:35 Cloudy 72 22 66 19 83 83 S 6 9 30.07 1018 10 16 0.00 0.00
5:55 am 05:55 Mostly Cloudy 72 22 66 19 83 83 S 6 9 30.07 1018 10 16 0.00 0.00
6:15 am 06:15 Cloudy 72 22 66 19 83 83 SSW 3 6 30.07 1018 10 16 0.00 0.00
6:35 am 06:35 Mostly Cloudy 72 22 66 19 83 83 Calm 30.08 1019 10 16 0.00 0.00
6:55 am 06:55 Mostly Cloudy 72 22 66 19 83 83 SSE 5 7 30.08 1019 N/A 0.00 0.00
7:15 am 07:15 Partly Cloudy 72 22 66 19 83 83 SSW 3 6 30.09 1019 10 16 0.00 0.00
7:35 am 07:35 Mostly Cloudy 72 22 68 20 88 88 Calm 30.09 1019 10 16 0.00 0.00
7:55 am 07:55 Cloudy 72 22 68 20 88 88 Calm 30.10 1019 N/A 0.00 0.00
8:15 am 08:15 Cloudy 72 22 68 20 88 88 undefined N/A 30.09 1019 N/A 0.00 0.00
8:35 am 08:35 Cloudy 72 22 68 20 88 88 Calm 30.09 1019 N/A 0.00 0.00
8:55 am 08:55 Cloudy 73 23 68 20 83 83 SSW 3 6 30.09 1019 N/A 0.00 0.00
9:15 am 09:15 Cloudy 73 23 68 20 83 83 SSW 5 7 30.09 1019 N/A 0.00 0.00
9:35 am 09:35 Cloudy 73 23 68 20 83 83 SSW 3 6 30.09 1019 10 16 0.00 0.00
9:55 am 09:55 Cloudy 73 23 68 20 83 83 S 3 6 30.09 1019 10 16 0.00 0.00
10:15 am 10:15 Mostly Cloudy 77 25 70 21 79 79 SW 3 6 30.09 1019 10 16 0.00 0.00
10:35 am 10:35 Cloudy 77 25 70 21 79 79 S 3 6 30.09 1019 10 16 0.00 0.00
10:55 am 10:55 Cloudy 77 25 70 21 79 79 SW 5 7 30.09 1019 10 16 0.00 0.00
11:15 am 11:15 Mostly Cloudy 79 26 70 21 74 74 S 6 9 30.08 1019 10 16 0.00 0.00
11:35 am 11:35 Partly Cloudy 79 26 70 21 74 74 SW 6 9 30.08 1019 10 16 0.00 0.00
11:55 am 11:55 Sunny 81 27 70 21 70 70 SSW 5 7 30.08 1019 10 16 0.00 0.00
12:15 pm 12:15 Partly Cloudy 81 27 72 22 74 74 SW 6 9 30.08 1019 10 16 0.00 0.00
12:35 pm 12:35 Partly Cloudy 82 28 72 22 70 70 S 6 9 30.08 1019 10 16 0.00 0.00
12:55 pm 12:55 Partly Cloudy 82 28 72 22 70 70 S 7 11 30.07 1018 10 16 0.00 0.00
1:15 pm 13:15 Mostly Cloudy 82 28 72 22 70 70 S 6 9 30.06 1018 10 16 0.00 0.00
1:35 pm 13:35 Mostly Cloudy 84 29 72 22 66 66 SSW 5 7 30.06 1018 10 16 0.00 0.00
1:55 pm 13:55 Partly Cloudy 84 29 72 22 66 66 SSW 8 13 30.05 1018 10 16 0.00 0.00
2:15 pm 14:15 Partly Cloudy 84 29 72 22 66 66 SSW 8 13 30.04 1017 10 16 0.00 0.00
2:35 pm 14:35 Partly Cloudy 84 29 70 21 62 62 SSW 9 15 30.04 1017 10 16 0.00 0.00
2:55 pm 14:55 Partly Cloudy 82 28 70 21 66 66 SSW 7 11 30.03 1017 10 16 0.00 0.00
3:15 pm 15:15 Mostly Cloudy 82 28 72 22 70 70 SW 8 13 30.03 1017 10 16 0.00 0.00
3:35 pm 15:35 Cloudy 81 27 72 22 74 74 SW 8 13 30.03 1017 10 16 0.00 0.00
3:55 pm 15:55 Cloudy 82 28 72 22 70 70 SW 6 9 30.02 1017 10 16 0.00 0.00
4:15 pm 16:15 Cloudy 81 27 73 23 79 79 SW 6 9 30.02 1017 10 16 0.00 0.00
4:35 pm 16:35 Mostly Cloudy 81 27 73 23 79 79 WSW 6 9 30.02 1017 10 16 0.00 0.00
4:55 pm 16:55 Mostly Cloudy 81 27 72 22 74 74 W 6 9 30.02 1017 10 16 0.00 0.00
5:15 pm 17:15 Cloudy 81 27 72 22 74 74 WSW 5 7 30.02 1017 10 16 0.00 0.00
5:35 pm 17:35 Cloudy 81 27 72 22 74 74 WNW 5 7 30.02 1017 10 16 0.00 0.00
5:55 pm 17:55 Mostly Cloudy 79 26 73 23 84 84 NW 5 7 30.02 1017 10 16 0.00 0.00
6:15 pm 18:15 Mostly Cloudy 79 26 73 23 84 84 WNW 5 7 30.02 1017 10 16 0.00 0.00
6:35 pm 18:35 Cloudy 77 25 73 23 89 89 WNW 3 6 30.01 1016 10 16 0.00 0.00
6:55 pm 18:55 Cloudy 77 25 73 23 89 89 Calm 30.01 1016 10 16 0.00 0.00
7:15 pm 19:15 Cloudy 77 25 73 23 89 89 Calm 30.01 1016 10 16 0.00 0.00
7:35 pm 19:35 Mostly Cloudy 77 25 73 23 89 89 Calm 30.01 1016 10 16 0.00 0.00
7:55 pm 19:55 Cloudy 77 25 73 23 89 89 Calm 30.01 1016 10 16 0.00 0.00
8:15 pm 20:15 Cloudy 77 25 72 22 83 83 Calm 30.01 1016 10 16 0.00 0.00
8:35 pm 20:35 Cloudy 77 25 73 23 89 89 Calm 30.03 1017 10 16 0.00 0.00
8:55 pm 20:55 Mostly Cloudy 77 25 72 22 83 83 Calm 30.03 1017 10 16 0.00 0.00
9:15 pm 21:15 Partly Cloudy 77 25 73 23 89 89 Calm 30.03 1017 10 16 0.00 0.00
9:35 pm 21:35 Partly Cloudy 77 25 73 23 89 89 Calm 30.03 1017 10 16 0.00 0.00
9:55 pm 21:55 Cloudy 73 23 73 23 100 100 ESE 3 6 30.04 1017 10 16 0.00 0.00
10:15 pm 22:15 Cloudy 73 23 72 22 94 94 Calm 30.03 1017 10 16 0.00 0.00
10:35 pm 22:35 Cloudy 73 23 72 22 94 94 ENE 3 6 30.03 1017 10 16 0.00 0.00
10:55 pm 22:55 Cloudy 73 23 73 23 100 100 ENE 3 6 30.02 1016 10 16 0.00 0.00
11:15 pm 23:15 Cloudy 73 23 72 22 94 94 ENE 3 6 30.02 1016 10 16 0.00 0.00
11:35 pm 23:35 Cloudy 73 23 72 22 94 94 Calm 30.02 1016 10 16 0.00 0.00
11:55 pm 23:55 Cloudy 73 23 72 22 94 94 S 8 13 30.02 1016 7 11 0.01 0.25

Powered by AerisWeather